Vertical_Velocity
4 9 -7 -17 17 5 2 -2 1 1 1 -1 0 -1 0 -1 1 -1 2 1 1 -1
7 27 -14 -3 -3 -14 -12 0 0 -2 -1 0 -0 0 -1 0 -0 -2 -0 3 -1 1
2 -1 -2 -4 15 -0 3 -3 3 1 5 1 -2 -1 -2 -1 0 -1 1 -1 -1 0
2 4 28 6 -1 -1 4 -0 -12 -7 2 1 -0 -0 -1 1 -1 -2 -3 -2 -0 0
3 7 0 -2 -2 -1 -1 -1 -0 -2 0 -0 -0 0 -1 -1 1 -1 -5 1 -2 -1
-0 1 3 0 8 4 8 1 -2 -2 -1 1 0 -1 -0 -1 -1 1 0 5 1 5
-6 -3 -2 -0 2 6 1 1 5 4 2 4 1 -1 -1 3 3 5 3 2 2 7
0 -2 -2 -4 -3 -1 3 5 5 1 -1 3 3 3 1 7 2 6 9 10 4 5
0 -1 1 1 0 -2 -2 -1 -2 2 1 -1 -1 7 3 13 2 -6 -7 -3 -8 -16
4 5 2 2 0 -3 -3 -1 -3 -4 3 2 -2 13 -8 -7 16 11 5 1 9 -2
-1 1 -2 -3 1 1 1 -0 1 1 1 6 2 3 -2 0 11 0 1 -4 18 -6
1 2 0 1 -1 -0 2 0 -1 -2 -1 2 1 4 11 7 -1 3 -1 9 3 4
2 3 4 2 3 0 3 3 3 -1 -5 8 -1 0 2 5 1 4 5 1 -3 0
3 1 1 1 7 9 9 4 0 -4 -1 -8 -6 -5 2 3 3 -0 0 -0 -1 0
Height
3114 3116 3120 3122 3127 3131 3134 3139 3141 3144 3146 3147 3149 3151 3152 3154 3156 3157 3158 3158 3159 3159
3108 3110 3111 3116 3119 3121 3127 3130 3135 3138 3141 3143 3144 3146 3148 3149 3150 3151 3152 3152 3152 3152
3102 3105 3102 3109 3114 3116 3117 3125 3130 3133 3136 3138 3140 3141 3143 3144 3145 3146 3146 3147 3147 3147
3096 3099 3100 3106 3109 3112 3118 3121 3126 3129 3131 3133 3134 3135 3137 3138 3139 3140 3141 3141 3141 3142
3089 3093 3096 3101 3106 3109 3114 3117 3121 3122 3124 3126 3128 3129 3130 3132 3132 3133 3134 3135 3134 3135
3082 3086 3091 3095 3100 3103 3107 3110 3113 3116 3118 3120 3122 3123 3124 3125 3125 3126 3127 3128 3127 3129
3076 3080 3084 3088 3092 3096 3099 3103 3105 3108 3110 3112 3113 3114 3116 3117 3118 3119 3120 3121 3120 3119
3071 3074 3077 3080 3084 3087 3091 3094 3097 3099 3101 3103 3105 3106 3107 3109 3110 3110 3110 3109 3110 3110
3064 3067 3069 3072 3075 3078 3082 3085 3087 3090 3091 3093 3095 3096 3098 3099 3098 3098 3098 3100 3098 3100
3054 3058 3061 3064 3067 3070 3073 3075 3077 3079 3081 3082 3084 3085 3086 3087 3088 3089 3090 3089 3087 3088
3045 3050 3053 3056 3059 3062 3064 3066 3069 3070 3070 3072 3073 3076 3078 3078 3079 3080 3079 3078 3075 3077
3036 3040 3043 3047 3050 3052 3054 3057 3058 3060 3061 3061 3062 3064 3066 3067 3067 3068 3068 3067 3067 3066
3025 3029 3032 3035 3038 3040 3043 3045 3047 3049 3050 3050 3052 3053 3054 3056 3057 3057 3057 3056 3055 3054
3014 3018 3021 3024 3028 3030 3032 3034 3036 3037 3037 3037 3041 3042 3043 3044 3044 3043 3043 3043 3042 3041